Hourly Weather Ludzmierz

Today, 20 June, Sunday

Time Temperature Precipitation Wind Pressure Humidity
00:00 +16°C° 0 mm 1 mps 709 mmHg 91%
01:00 +16°C° 0 mm 1 mps 709 mmHg 90%
02:00 +16°C° 0 mm 1 mps 709 mmHg 90%
03:00 +16°C° 0 mm 1 mps 708 mmHg 90%
04:00 +15°C° 0 mm 1 mps 708 mmHg 90%
05:00 +18°C° 0 mm 1 mps 708 mmHg 83%
06:00 +18°C° 0 mm 0 mps 708 mmHg 76%
07:00 +20°C° 0 mm 0 mps 709 mmHg 69%
08:00 +24°C° 0 mm 1 mps 709 mmHg 61%
09:00 +26°C° 0 mm 1 mps 709 mmHg 54%
10:00 +27°C° 0 mm 1 mps 709 mmHg 46%
11:00 +28°C° 0 mm 1 mps 709 mmHg 44%
12:00 +29°C° 0 mm 1 mps 709 mmHg 42%
13:00 +29°C° 0 mm 2 mps 708 mmHg 40%
14:00 +29°C° 0 mm 2 mps 708 mmHg 43%
15:00 +28°C° 0 mm 2 mps 708 mmHg 46%
16:00 +28°C° 0 mm 2 mps 708 mmHg 49%
17:00 +26°C° 0 mm 2 mps 708 mmHg 60%
18:00 +24°C° 0 mm 1 mps 707 mmHg 70%
19:00 +22°C° 0 mm 1 mps 707 mmHg 81%
20:00 +21°C° 0 mm 1 mps 707 mmHg 84%
21:00 +20°C° 0 mm 1 mps 707 mmHg 87%
22:00 +19°C° 0 mm 1 mps 707 mmHg 91%
23:00 +18°C° 0 mm 1 mps 706 mmHg 91%

Tomorrow, 21 June, Monday

Time Temperature Precipitation Wind Pressure Humidity
00:00 +18°C° 0 mm 1 mps 706 mmHg 90%
01:00 +18°C° 0 mm 1 mps 706 mmHg 90%
02:00 +18°C° 0 mm 1 mps 705 mmHg 90%
03:00 +16°C° 0 mm 1 mps 705 mmHg 89%
04:00 +16°C° 0 mm 1 mps 705 mmHg 88%
05:00 +20°C° 0 mm 1 mps 705 mmHg 80%
06:00 +22°C° 0 mm 1 mps 705 mmHg 72%
07:00 +22°C° 0 mm 0 mps 706 mmHg 65%
08:00 +24°C° 0 mm 0 mps 706 mmHg 59%
09:00 +27°C° 0 mm 1 mps 706 mmHg 53%
10:00 +29°C° 0 mm 1 mps 706 mmHg 47%
11:00 +29°C° 0 mm 1 mps 706 mmHg 47%
12:00 +29°C° 0 mm 1 mps 706 mmHg 47%
13:00 +29°C° 0 mm 1 mps 706 mmHg 47%
14:00 +29°C° 0 mm 1 mps 706 mmHg 51%
15:00 +28°C° 0 mm 1 mps 705 mmHg 55%
16:00 +27°C° 0 mm 1 mps 705 mmHg 59%
17:00 +26°C° 0.1 mm 1 mps 705 mmHg 66%
18:00 +25°C° 0.1 mm 1 mps 705 mmHg 73%
19:00 +23°C° 0.1 mm 1 mps 705 mmHg 80%
20:00 +22°C° 0 mm 1 mps 705 mmHg 82%
21:00 +22°C° 0 mm 1 mps 705 mmHg 84%
22:00 +21°C° 0 mm 1 mps 705 mmHg 86%
23:00 +20°C° 0.2 mm 1 mps 705 mmHg 87%

Day after tomorrow, 22 June, Tuesday

Time Temperature Precipitation Wind Pressure Humidity
00:00 +20°C° 0.2 mm 1 mps 705 mmHg 88%
01:00 +19°C° 0.2 mm 1 mps 705 mmHg 89%
02:00 +19°C° 0.1 mm 1 mps 705 mmHg 89%
03:00 +19°C° 0.1 mm 1 mps 705 mmHg 90%
04:00 +19°C° 0.1 mm 1 mps 705 mmHg 90%
05:00 +20°C° 0 mm 1 mps 706 mmHg 86%
06:00 +20°C° 0 mm 0 mps 706 mmHg 81%
07:00 +21°C° 0 mm 0 mps 706 mmHg 77%
08:00 +25°C° 0.4 mm 1 mps 707 mmHg 72%
09:00 +26°C° 0.4 mm 1 mps 707 mmHg 67%
10:00 +28°C° 0.4 mm 1 mps 707 mmHg 62%
11:00 +27°C° 0.9 mm 1 mps 707 mmHg 65%
12:00 +27°C° 0.9 mm 1 mps 707 mmHg 68%
13:00 +27°C° 0.9 mm 1 mps 707 mmHg 72%
14:00 +27°C° 0.6 mm 1 mps 707 mmHg 70%
15:00 +27°C° 0.6 mm 1 mps 707 mmHg 68%
16:00 +27°C° 0.6 mm 1 mps 707 mmHg 66%
17:00 +26°C° 0.3 mm 1 mps 707 mmHg 72%
18:00 +25°C° 0.3 mm 1 mps 707 mmHg 79%
19:00 +23°C° 0.3 mm 1 mps 707 mmHg 85%
20:00 +22°C° 0.1 mm 1 mps 707 mmHg 87%
21:00 +21°C° 0.1 mm 1 mps 707 mmHg 88%
22:00 +20°C° 0.1 mm 1 mps 707 mmHg 90%
23:00 +20°C° 0 mm 1 mps 707 mmHg 90%

23 June, Wednesday

Time Temperature Precipitation Wind Pressure Humidity
00:00 +19°C° 0 mm 1 mps 707 mmHg 90%
01:00 +19°C° 0 mm 1 mps 707 mmHg 90%
02:00 +19°C° 0 mm 1 mps 707 mmHg 90%
03:00 +19°C° 0 mm 1 mps 707 mmHg 89%
04:00 +19°C° 0 mm 1 mps 707 mmHg 89%
05:00 +21°C° 0 mm 1 mps 708 mmHg 83%
06:00 +23°C° 0 mm 1 mps 708 mmHg 78%
07:00 +25°C° 0 mm 1 mps 708 mmHg 72%
08:00 +27°C° 0.1 mm 1 mps 709 mmHg 65%
09:00 +28°C° 0.1 mm 1 mps 709 mmHg 59%
10:00 +30°C° 0.1 mm 1 mps 709 mmHg 52%
11:00 +30°C° 0.2 mm 1 mps 709 mmHg 53%
12:00 +30°C° 0.2 mm 1 mps 709 mmHg 54%
13:00 +30°C° 0.2 mm 2 mps 709 mmHg 55%
14:00 +28°C° 1.3 mm 2 mps 710 mmHg 64%
15:00 +27°C° 1.3 mm 2 mps 710 mmHg 74%
16:00 +26°C° 1.3 mm 2 mps 710 mmHg 83%
17:00 +25°C° 0.7 mm 1 mps 710 mmHg 84%
18:00 +24°C° 0.7 mm 1 mps 710 mmHg 86%
19:00 +23°C° 0.7 mm 1 mps 710 mmHg 87%
20:00 +22°C° 0.1 mm 1 mps 711 mmHg 89%
21:00 +21°C° 0.1 mm 1 mps 711 mmHg 92%
22:00 +20°C° 0.1 mm 1 mps 711 mmHg 94%
23:00 +20°C° 0 mm 1 mps 711 mmHg 95%

24 June, Thursday

Time Temperature Precipitation Wind Pressure Humidity
00:00 +20°C° 0 mm 1 mps 711 mmHg 96%
01:00 +19°C° 0 mm 1 mps 711 mmHg 97%
02:00 +19°C° 0 mm 1 mps 711 mmHg 97%
03:00 +19°C° 0 mm 1 mps 711 mmHg 97%
04:00 +19°C° 0 mm 1 mps 711 mmHg 97%
05:00 +20°C° 0 mm 1 mps 711 mmHg 94%
06:00 +21°C° 0 mm 1 mps 711 mmHg 91%
07:00 +23°C° 0 mm 1 mps 711 mmHg 88%
08:00 +25°C° 0.1 mm 1 mps 711 mmHg 79%
09:00 +27°C° 0.1 mm 1 mps 711 mmHg 69%
10:00 +29°C° 0.1 mm 2 mps 711 mmHg 59%
11:00 +28°C° 1 mm 2 mps 711 mmHg 62%
12:00 +28°C° 1 mm 2 mps 710 mmHg 64%
13:00 +28°C° 1 mm 2 mps 710 mmHg 66%
14:00 +28°C° 0.5 mm 2 mps 710 mmHg 65%
15:00 +28°C° 0.5 mm 2 mps 710 mmHg 64%
16:00 +28°C° 0.5 mm 2 mps 710 mmHg 63%
17:00 +26°C° 0.9 mm 2 mps 710 mmHg 72%
18:00 +24°C° 0.9 mm 2 mps 710 mmHg 82%
19:00 +22°C° 0.9 mm 1 mps 710 mmHg 91%
20:00 +22°C° 0.2 mm 1 mps 710 mmHg 93%
21:00 +21°C° 0.2 mm 1 mps 710 mmHg 95%
22:00 +20°C° 0.2 mm 1 mps 710 mmHg 97%
23:00 +20°C° 0.1 mm 1 mps 710 mmHg 97%

25 June, Friday

Time Temperature Precipitation Wind Pressure Humidity
00:00 +19°C° 0.1 mm 1 mps 710 mmHg 96%
01:00 +19°C° 0.1 mm 1 mps 710 mmHg 95%
02:00 +19°C° 0.5 mm 1 mps 710 mmHg 96%
03:00 +19°C° 0.5 mm 1 mps 710 mmHg 96%
04:00 +19°C° 0.5 mm 1 mps 710 mmHg 97%
05:00 +19°C° 0.1 mm 1 mps 710 mmHg 96%
06:00 +19°C° 0.1 mm 1 mps 710 mmHg 95%
07:00 +20°C° 0.1 mm 1 mps 710 mmHg 95%
08:00 +20°C° 0.3 mm 1 mps 710 mmHg 93%
09:00 +21°C° 0.3 mm 1 mps 710 mmHg 91%
10:00 +21°C° 0.3 mm 1 mps 710 mmHg 89%
11:00 +21°C° 0.4 mm 1 mps 710 mmHg 88%
12:00 +21°C° 0.4 mm 1 mps 710 mmHg 88%
13:00 +22°C° 0.4 mm 1 mps 710 mmHg 87%
14:00 +21°C° 0.9 mm 1 mps 710 mmHg 89%
15:00 +20°C° 0.9 mm 2 mps 709 mmHg 92%
16:00 +19°C° 0.9 mm 2 mps 709 mmHg 94%
17:00 +20°C° 1.4 mm 1 mps 709 mmHg 95%
18:00 +19°C° 1.4 mm 1 mps 709 mmHg 97%
19:00 +18°C° 1.4 mm 1 mps 708 mmHg 98%
20:00 +18°C° 0.7 mm 1 mps 709 mmHg 98%
21:00 +18°C° 0.7 mm 1 mps 709 mmHg 99%
22:00 +18°C° 0.7 mm 1 mps 709 mmHg 99%
23:00 +16°C° 1.2 mm 1 mps 709 mmHg 99%
Show more

We Need Your Consent

Meteoprog and our Service Providers may store and access personal data such as cookies, device identifiers or other similar technologies on your device and process such data to personalise content and ads, as well as provide social media features and to analyse the traffic.

  • Store and/or access information on your device

    Cookies, device identifiers or other information can be stored or accessed on your device for the purposes indicated above.

  • Personalised ads and content, ad and content measurement, audience insights, and products development

    Ads and content can be personalised based on a profile. More data can be added to better personalise ads and content. Ad and content performance can be measured. Insights about the audience who saw the ads and content can be derived. Such data can be used to develop or improve user’s experience, systems and software.

By clicking ‘I Agree’ you will allow the use of indicated cookies, device identifiers, web beacons or other similar technologies. Your settings can be changed in the browser on your device.

For certain purposes, legitimate interests may be relied on, rather than consent. You can read more about this in our Privacy and Cookie Policy.